Simultaneous Nadir Overpasses (SNOs) Predictions

Prediction of SNOs between METOP-B and NOAA-19 Satellite Orbit:

Table of predicted SNOs for the next 14.0 days since TLE Epoch: 1/26/2018
Index Date (METOP-B) Time (METOP-B) Lat,Lon (METOP-B) SZA (METOP-B ) Date (NOAA-19) Time (NOAA-19) Lat,Lon (NOAA-19) SZA (NOAA-19 ) Distance(km) Time Diff (sec)
1 01/27/2018 10:03:28 -77.95,-142.93 83.67 01/27/2018 10:02:23 -77.95,-142.89 83.68 0.89 65
2 01/27/2018 10:54:08 77.94, 24.38 96.32 01/27/2018 10:53:19 77.95, 24.35 96.33 1.55 49
3 01/27/2018 11:44:50 -77.93,-168.35 83.71 01/27/2018 11:44:24 -77.93,-168.32 83.71 0.93 26
4 01/27/2018 12:35:30 77.92, -1.05 96.28 01/27/2018 12:35:20 77.94, -1.09 96.30 2.16 10
5 01/27/2018 13:26:12 -77.91, 166.22 83.75 01/27/2018 13:26:25 -77.92, 166.24 83.74 1.29 13
6 01/27/2018 14:16:52 77.91, -26.48 96.24 01/27/2018 14:17:21 77.93, -26.53 96.27 2.79 29
7 01/27/2018 15:07:34 -77.89, 140.79 83.78 01/27/2018 15:08:26 -77.91, 140.81 83.76 1.78 52
8 01/27/2018 15:58:14 77.89, -51.90 96.21 01/27/2018 15:59:22 77.92, -51.96 96.24 3.41 68
9 02/07/2018 06:12:45 -77.99, -85.04 86.74 02/07/2018 06:11:39 -77.98, -85.06 86.75 0.77 66
10 02/07/2018 07:03:25 77.98, 82.26 93.25 02/07/2018 07:02:35 77.99, 82.18 93.25 1.87 50
11 02/07/2018 07:54:07 -77.97,-110.47 86.78 02/07/2018 07:53:40 -77.97,-110.50 86.78 0.73 27
12 02/07/2018 08:44:47 77.97, 56.83 93.21 02/07/2018 08:44:36 77.98, 56.74 93.22 2.33 11
13 02/07/2018 09:35:29 -77.95,-135.90 86.82 02/07/2018 09:35:41 -77.96,-135.94 86.82 1.21 12
14 02/07/2018 10:26:09 77.95, 31.40 93.17 02/07/2018 10:26:37 77.96, 31.31 93.18 2.88 28
15 02/07/2018 11:16:50 -77.94,-161.33 86.86 02/07/2018 11:17:41 -77.95,-161.38 86.85 1.85 51
16 02/07/2018 12:07:30 77.93, 5.97 93.12 02/07/2018 12:08:36 77.91, 6.08 93.11 3.13 66




NCC Satellite Simultaneous Nadir Overpasses (SNOs) Prediction Service
